Location: Albany
(35.0000°S, 118.0000°E)
Time: 10:38:10
(UTC-04:00)

Daily predictions for brighter satellites

Satellite Brightness Start Highest point End
(mag) Time Altitude Azimuth Time Altitude Azimuth Time Altitude Azimuth
Haruka 4.4 16:28:41 62° NW 16:29:58 71° NNE 16:59:55 10° E
Lacrosse 5 4.2 16:46:40 13° N 16:46:40 13° N 16:47:14 10° N
CZ-4C R/B 4.3 16:46:35 21° S 16:46:35 21° S 16:49:10 10° SSE
Cosmos 1570 Rocket 4.4 16:55:43 54° N 16:55:43 54° N 16:59:49 10° NNE
Timation 2 Rocket 4.4 16:50:28 10° N 16:56:21 58° ENE 17:02:30 10° SSE
Cosmos 2034 Rocket 3.9 16:54:25 42° S 16:56:47 90° WSW 17:03:11 10° N
IRS-1A Rocket 4.2 16:52:05 10° NNE 16:57:48 89° W 16:58:46 64° SSW
Tsikada Rocket 4.0 16:51:38 10° N 16:57:57 83° E 17:04:25 10° S
SPOT 3 Rocket 4.2 16:53:29 10° NNE 16:58:30 53° ESE 17:01:25 24° S
CSL-04 Rocket 4.2 16:54:05 10° N 16:58:08 47° NNW 16:58:08 47° NNW
Cosmos 2208 Rocket 4.1 17:02:45 65° NNW 17:02:45 65° NNW 17:07:20 10° N
CZ-4 R/B 2.4 16:59:06 10° NNE 17:03:10 47° ESE 17:04:11 39° SSE
ATLAS 5 CENTAUR R/B 4.5 16:58:45 10° NNE 17:04:04 27° ENE 17:09:13 10° ESE
Cosmos 1953 Rocket 4.1 17:03:11 10° N 17:07:27 57° E 17:11:46 10° SSE
Cosmos 1891 Rocket 4.4 17:05:37 44° SSW 17:07:45 71° W 17:14:00 10° N
Cosmos 1513 Rocket 4.4 17:06:45 49° SSW 17:08:27 67° W 17:14:47 10° N
SMAP 4.4 17:07:53 10° NE 17:12:11 37° ESE 17:16:32 10° S
BREEZE-M DEB (TANK) 4.2 17:15:57 19° ESE 17:15:57 19° ESE 17:16:58 10° E
Meteor 1-22 Rocket 4.5 17:12:14 12° S 17:17:10 63° E 17:22:27 10° NNE
USA 116 4.4 17:13:19 10° SSE 17:18:40 81° ENE 17:23:33 10° N
Cosmos 2082 Rocket 2.7 17:19:41 10° N 17:25:15 62° ENE 17:30:51 10° SSE
Cosmos 2369 4.1 17:24:29 17° SSW 17:28:58 63° ESE 17:34:36 10° NNE
CZ-2C R/B 3.8 17:25:13 10° NE 17:30:02 40° ESE 17:34:55 10° S
Cosmos 1758 Rocket 3.5 17:31:30 10° N 17:36:01 79° W 17:40:35 10° S
Cosmos 2278 3.7 17:34:42 19° SSW 17:38:56 88° ESE 17:44:37 10° NNE
CENTAUR R/B 2.9 17:33:55 10° NW 17:41:53 69° WSW 17:49:09 10° SSE
NOSS 2-1 (D) 4.3 17:37:10 18° SSW 17:42:09 77° ESE 17:47:09 10° NE
NOSS 2-1 (C) 4.3 17:38:11 18° SSW 17:43:13 76° ESE 17:48:13 10° NE
YAOGAN 1 2.5 17:39:57 10° N 17:44:19 79° WNW 17:47:59 15° SSW
ASTRO E2 4.1 17:44:47 23° NW 17:45:57 27° NNW 17:49:25 10° NE
AQUARIUS 4.1 17:41:36 10° NNE 17:46:08 89° W 17:50:43 10° SSW
ATLAS CENTAUR R/B 4.1 17:49:09 10° SSE 17:50:46 12° SE 17:52:26 10° ESE
MOS 1 4.5 17:47:16 10° N 17:52:43 50° W 17:58:10 10° SSW
NOSS 2-1 (E) 4.1 17:52:34 15° SSW 17:57:58 87° WNW 18:02:49 10° NNE
SJ-12 3.9 17:57:51 10° N 18:01:57 67° W 18:06:08 10° SSW
DELTA 2 R/B (1) 3.9 18:00:23 23° WSW 18:03:45 54° S 18:09:18 10° ESE
Cosmos 1354 Rocket 4.4 17:58:51 10° N 18:04:06 69° ENE 18:09:27 10° SSE
PAYLOAD A 4.1 17:59:57 10° N 18:05:00 59° W 18:10:18 10° SSW
Cosmos 1833 Rocket 2.6 18:00:29 10° NNW 18:06:07 75° WSW 18:11:49 10° SSE
Cosmos 1953 2.5 18:02:59 10° S 18:07:06 77° E 18:11:06 10° N
Cosmos 1766 3.7 18:07:03 13° SSW 18:10:23 41° W 18:14:09 10° NNW
Cosmos 1634 Rocket 4.0 18:04:43 10° SSW 18:10:53 61° W 18:16:57 10° N
Cosmos 1763 Rocket 4.1 18:06:48 10° S 18:12:02 61° ESE 18:17:15 10° NNE
H-2A R/B (2) 2.7 18:06:27 10° WNW 18:12:23 34° N 18:15:00 10° ENE
IDEFIX/ARIANE 42P 2.6 18:08:02 10° NNE 18:13:15 88° ESE 18:18:32 10° SSW
Cosmos 1656 3.8 18:07:54 10° SSW 18:13:28 78° ESE 18:19:04 10° NNE
Cosmos 1980 Rocket 3.7 18:09:35 10° S 18:14:45 35° ESE 18:19:51 10° NE
Cosmos-2242 3.0 18:12:05 10° S 18:16:29 73° W 18:20:51 10° N
Cosmos 1842 Rocket 4.5 18:12:15 10° S 18:16:33 51° E 18:20:47 10° NNE
GENESIS II 4.3 18:13:51 11° SSW 18:17:32 73° ESE 18:21:24 10° NE
USA 81 4.0 18:13:54 10° S 18:19:12 67° W 18:24:27 10° N
Cosmos 1697 Rocket 3.1 18:14:09 10° SSW 18:19:48 66° ESE 18:25:25 10° NNE
SKYMED 2 3.5 18:17:20 10° S 18:21:46 79° WSW 18:26:07 10° NNW
USA 234 3.2 18:17:05 10° SE 18:23:41 77° SW 18:30:14 10° NW
Helios 1B rocket 3.5 18:21:19 10° SSE 18:25:26 51° E 18:29:27 10° N
Cosmos 1174 3.6 18:23:34 10° NNW 18:27:03 74° WSW 18:31:25 10° SSE
Cosmos 468 Rocket 4.5 18:22:16 10° SSW 18:27:17 42° WNW 18:32:16 10° N
GPS 2-04 Rocket1 2.7 18:26:18 14° W 18:29:10 57° NNW 18:32:34 10° ENE
CZ-4 R/B 3.4 18:36:54 10° WNW 18:38:25 12° W 18:39:57 10° WSW
Resurs 01 Rocket 2.4 18:43:21 10° NNE 18:47:41 55° ESE 18:52:06 10° S
ATLAS 5 CENTAUR R/B 2.7 18:42:20 10° NW 18:48:36 50° SW 18:54:34 10° SSE
BREEZE-M DEB (TANK) 3.6 18:47:29 10° NNW 18:50:31 32° NE 18:52:40 10° ESE
